Location: Gwatt
(46.7204°N, 7.6223°E)
Time: 02:50:25
(UTC+00:00)

Courier 1B Rocket - Pass Details

Date: 27 January 2021
Orbit: 920 x 1202 km, 28.3° (Epoch: 05 March)

Event Time Altitude Azimuth Distance (km) Brightness Sun altitude
Rises 08:18:15 0° 243° (WSW) 3,756 7.8 10.4°
Reaches altitude 10° 08:22:21 10° 220° (SW) 2,867 7.5 10.9°
Maximum altitude 08:25:48 14° 190° (S) 2,615 7.8 11.3°
Drops below altitude 10° 08:29:20 10° 161° (SSE) 2,969 8.9 11.8°
Sets 08:33:44 0° 138° (SE) 3,986 10.3 12.3°
